CAPE
0 0 0 0 0 0 0 0 0 0 0 0 0 0 0 0 0 0 0 0 0 0 3 0 0 0 0 0 0 0 0 0
0 0 0 0 0 0 0 0 0 0 0 0 0 0 0 0 0 0 0 0 0 0 0 0 0 0 0 0 0 0 0 0
0 0 0 0 0 0 0 0 0 0 0 0 0 0 0 0 0 0 0 0 0 0 0 4 7 3 0 0 2 5 0 0
0 0 0 0 0 0 0 0 0 0 0 0 0 0 0 0 0 0 0 0 0 1 4 6 6 16 15 7 0 0 2 1
0 0 0 0 0 0 0 0 0 0 0 0 0 0 0 0 0 0 0 5 9 12 18 17 14 4 5 18 3 2 6 4
0 0 0 0 0 0 0 0 0 0 0 0 0 0 0 0 1 4 9 10 14 14 18 15 8 15 14 17 5 18 7 8
0 0 0 0 0 0 0 0 0 0 0 0 0 0 0 1 3 6 9 14 15 17 17 19 19 18 20 14 19 30 28 17
0 0 0 0 0 0 0 0 0 0 0 0 0 0 2 2 6 9 11 19 21 20 18 21 24 22 25 18 16 15 21 20
0 0 0 0 0 0 0 0 0 0 0 0 0 0 4 6 7 13 19 24 23 25 22 22 21 23 29 22 15 14 18 19
0 0 0 0 0 0 0 0 0 0 0 0 0 3 1 1 9 16 19 15 28 28 18 22 22 17 19 21 17 9 2 5
0 0 0 0 0 0 0 0 0 0 0 0 0 2 3 8 11 16 13 10 15 21 24 17 14 19 14 17 15 10 7 6
0 0 0 0 0 0 0 0 0 0 0 0 1 3 7 11 9 13 12 9 16 19 20 15 11 13 10 11 11 8 9 9
0 1 0 0 0 0 0 0 0 0 0 0 4 4 7 9 5 11 5 6 15 18 16 10 8 8 12 7 11 9 7 7
0 0 0 0 0 0 0 0 0 0 0 2 3 3 6 6 3 9 3 0 4 5 8 9 6 8 8 7 8 10 8 7
0 0 0 0 0 0 0 0 0 0 0 0 1 1 3 2 3 3 5 3 3 5 2 4 5 2 3 6 7 6 6 6
0 0 0 0 0 0 0 0 0 0 0 0 0 0 3 1 6 2 4 4 4 7 4 1 2 3 3 0 4 3 2 2
0 0 0 0 0 0 0 0 0 0 0 0 0 0 0 0 2 6 5 4 1 0 2 0 0 8 7 5 2 3 3 3
0 0 0 0 0 0 0 0 0 0 0 0 0 0 0 0 1 2 1 0 0 0 0 0 0 0 9 7 2 0 0 0
0 0 0 0 0 0 0 0 0 0 0 0 0 0 0 0 0 0 2 0 0 0 0 0 0 0 6 7 3 0 0 0
CIN
0 0 0 0 0 0 0 0 0 0 0 0 0 0 0 0 0 0 0 0 -2 0 -4 0 0 0 0 0 0 0 0 0
0 0 0 0 0 0 0 0 0 0 0 0 0 0 0 0 0 0 0 0 0 0 0 0 0 0 -1 0 0 0 0 0
0 0 0 0 0 0 0 0 0 0 0 0 0 0 0 0 0 0 0 0 0 0 0 0 0 -3 0 0 -1 -1 0 0
0 0 0 0 0 0 0 0 0 0 0 0 0 0 0 0 0 0 0 0 0 0 0 0 -1 0 0 0 0 0 0 -1
0 0 0 0 0 0 0 0 0 0 0 0 0 0 0 0 0 0 0 -1 0 -1 0 0 0 0 0 0 0 -1 0 0
0 0 0 0 0 0 0 0 0 0 0 0 0 0 0 0 0 0 0 0 0 0 0 0 0 0 0 0 -1 0 -1 0
0 0 0 0 0 0 0 0 0 0 0 0 0 0 0 0 0 0 0 0 0 0 0 0 0 0 0 0 0 0 0 0
0 0 0 0 0 0 0 0 0 0 0 0 0 0 0 0 0 0 0 0 0 0 0 0 0 0 0 0 0 0 0 0
0 0 0 0 0 0 0 0 0 0 0 0 0 0 0 0 0 0 0 0 0 0 0 0 0 0 0 0 0 0 0 0
0 0 0 0 0 0 0 0 0 0 0 0 0 0 0 0 0 0 0 0 0 0 0 0 0 0 0 0 0 0 0 0
0 0 0 0 0 0 0 0 0 0 0 0 0 0 0 0 0 0 0 0 0 0 0 0 0 0 0 0 0 0 0 0
0 0 0 0 0 0 0 0 0 0 0 0 0 0 0 0 0 0 0 0 0 0 0 0 0 0 0 0 0 0 0 0
0 0 0 0 0 0 0 0 0 0 0 0 0 0 0 0 0 -1 -1 -1 0 0 0 0 0 0 0 0 0 0 0 0
0 0 0 0 0 0 0 0 0 0 0 0 0 0 0 0 -1 -2 0 0 -1 0 0 0 0 0 0 0 0 0 0 0
0 0 0 0 0 0 0 0 0 0 0 -1 0 -1 -1 -2 -1 -1 0 0 0 0 0 0 -1 -1 0 0 0 0 0 0
0 0 0 0 0 0 0 0 0 0 0 0 -1 0 0 0 0 0 0 0 0 0 0 0 0 0 -2 0 0 0 0 0
0 0 0 0 0 0 0 0 0 0 0 0 0 0 0 0 -1 0 0 0 -1 0 0 0 0 0 0 0 0 0 0 0
0 0 0 0 0 0 0 0 0 0 0 0 0 0 0 0 -1 -2 -1 0 0 0 0 0 0 0 0 0 0 -2 -1 -2
0 0 0 0 0 0 0 0 0 0 0 0 0 0 0 0 0 -1 -1 0 0 0 0 0 0 0 0 0 0 0 0 0
Wind_Speed
6 6 6 7 7 7 9 8 10 10 7 8 8 8 8 8 9 8 10 6 9 8 7 8 10 9 9 9 10 9 8 8
6 4 6 6 8 9 9 9 9 8 8 9 9 9 10 9 9 11 13 12 12 12 9 10 11 11 12 12 11 11 10 9
7 5 5 5 6 7 7 9 9 8 7 7 7 9 9 8 8 13 13 15 15 13 13 12 11 10 13 13 14 10 9 8
8 5 5 4 6 6 7 8 8 8 9 7 8 8 8 8 10 10 12 15 15 14 13 11 11 10 9 12 12 13 10 10
7 5 4 4 4 4 5 6 7 8 9 8 10 9 9 9 9 10 11 13 13 13 12 11 10 9 11 10 11 11 11 10
8 6 3 4 4 4 4 5 6 8 8 9 7 9 8 8 8 12 12 11 12 13 12 12 11 10 12 13 11 11 10 10
8 7 5 5 5 4 4 5 7 8 8 9 10 11 11 10 11 9 9 9 9 11 13 12 11 12 12 12 13 12 10 11
9 9 5 5 4 5 4 6 7 8 8 9 10 11 11 11 12 9 12 9 9 11 13 13 10 11 13 12 12 12 11 11
7 6 4 4 3 6 6 7 8 8 8 9 9 11 7 8 10 10 8 9 10 13 13 13 13 13 11 10 8 9 11 10
9 9 5 3 3 6 7 7 8 8 8 8 9 10 11 10 11 11 9 11 11 13 13 13 12 12 12 11 7 10 11 10
10 8 7 4 4 7 8 7 7 8 8 8 8 10 10 9 9 11 12 11 13 14 12 12 13 13 12 11 10 13 15 11
11 7 8 7 7 7 6 5 6 7 9 8 8 8 8 8 9 9 9 10 12 13 14 14 14 13 13 12 12 14 15 13
13 8 6 6 4 2 3 5 6 6 7 7 7 7 8 8 8 9 10 11 8 12 12 14 15 15 14 15 13 14 15 15
14 10 7 5 5 3 3 4 4 4 6 6 7 7 7 8 9 8 10 12 13 13 13 13 15 16 15 16 15 15 15 15
12 10 9 8 6 5 3 5 3 4 4 6 6 6 7 7 8 9 10 12 13 14 14 14 13 15 16 15 16 16 15 14
10 10 9 9 8 8 8 7 3 4 5 5 5 6 6 7 8 9 10 11 12 13 14 14 14 13 13 15 15 16 16 16
11 10 11 10 9 7 8 8 6 6 5 4 4 5 5 6 8 8 8 10 11 12 14 15 15 10 22 25 18 14 16 17
11 10 9 8 8 8 8 8 6 9 6 4 4 3 3 4 6 6 7 8 9 11 12 13 15 13 23 21 21 12 13 15
10 10 9 9 9 9 9 10 8 6 8 7 4 2 3 3 3 5 4 5 7 9 10 11 12 14 24 21 20 10 12 15
Wind_Direction
81 62 47 55 50 40 26 24 18 356 3 359 346 347 344 342 334 330 337 329 345 328 321 319 319 311 306 306 311 307 300 293
114 77 73 34 47 32 20 18 14 5 7 354 353 344 339 333 331 329 358 344 352 346 334 336 329 319 316 310 304 304 300 296
137 115 93 63 51 36 17 20 12 23 8 342 346 343 327 328 341 348 342 354 350 342 337 331 326 320 316 315 319 306 290 290
148 142 98 66 52 33 13 18 16 32 9 358 355 331 342 343 344 340 349 343 338 333 333 322 321 312 299 300 306 301 307 306
135 154 116 85 67 55 20 10 25 30 16 3 359 354 345 344 341 342 338 332 335 326 326 325 325 314 306 301 284 294 306 297
147 141 116 108 88 59 39 3 36 36 14 16 7 3 352 343 340 337 338 334 328 327 329 329 320 310 300 289 282 279 277 285
150 140 151 117 82 56 18 12 42 37 16 20 19 8 352 350 350 342 336 328 326 330 331 319 312 306 302 298 297 280 271 267
166 171 163 98 57 49 2 22 31 32 13 21 25 15 1 354 351 341 337 334 335 334 330 325 319 321 311 301 296 284 274 268
155 136 113 87 70 52 26 19 26 22 16 23 26 20 3 2 350 347 343 342 337 337 335 335 333 330 323 311 296 287 274 260
163 127 124 92 58 68 44 18 25 22 18 29 28 17 8 2 358 355 351 347 341 341 347 343 342 340 339 334 337 319 271 254
135 132 118 98 68 78 53 24 24 19 20 37 29 15 7 3 360 1 360 349 346 347 356 354 351 359 354 356 1 357 30 30
133 105 123 76 45 47 50 27 33 26 27 29 34 20 8 5 1 1 2 343 358 358 2 0 360 360 8 13 19 18 28 30
119 116 82 90 105 82 79 41 43 25 37 32 34 23 11 10 2 1 4 357 13 5 5 9 7 7 13 16 21 26 27 29
128 140 148 146 165 120 99 92 60 35 44 40 34 26 15 6 4 8 24 9 10 17 13 18 17 13 15 19 21 26 28 25
151 156 159 164 161 148 143 99 84 70 51 51 41 25 14 5 21 14 33 24 16 23 16 14 19 23 25 25 23 23 23 25
160 157 155 155 162 161 161 127 112 92 76 60 49 33 21 24 29 30 25 36 25 21 26 18 12 30 30 33 29 27 27 24
160 165 162 169 166 160 142 128 137 103 88 74 49 46 28 32 28 47 35 36 33 28 26 20 17 16 37 41 41 36 32 31
163 164 165 156 153 156 143 140 137 123 107 88 69 41 45 39 41 34 45 46 43 34 34 25 20 16 26 42 48 43 40 35
158 155 162 147 151 164 137 138 135 116 121 121 111 72 55 36 48 56 41 55 59 52 38 41 29 25 27 33 42 54 46 38